Location: Oshawa
(43.9000°N, 78.8670°W)
Time: 09:46:46
(UTC-04:00)

ITAMSAT 1 - Visible Passes

Search period start: 01 October 2016 00:00
Search period end: 11 October 2016 00:00
Orbit: 784 x 797 km, 98.8° (Epoch: 30 September)

Date Brightness Start Highest point End Pass type
(mag) Time Alt. Az. Time Alt. Az. Time Alt. Az.
01 Oct 8.1 04:16:44 10° NNE 04:21:14 59° ENE 04:21:14 59° ENE visible
01 Oct 9.1 05:57:25 10° NNW 06:00:54 18° WNW 06:01:58 17° WNW visible
02 Oct 9.2 03:47:41 10° NNE 03:51:25 33° ENE 03:51:25 33° ENE visible
02 Oct 8.4 05:27:20 10° N 05:31:53 31° WNW 05:32:10 31° WNW visible
03 Oct 10.0 03:19:07 10° NE 03:21:37 18° ENE 03:21:37 18° ENE visible
03 Oct 7.8 04:57:38 10° N 05:02:21 53° NW 05:02:21 53° NW visible
04 Oct 8.0 04:28:11 10° NNE 04:32:33 62° NNE 04:32:33 62° NNE visible
04 Oct 9.3 06:09:23 10° NNW 06:12:14 15° WNW 06:13:16 14° WNW visible
05 Oct 8.9 03:59:02 10° NNE 04:02:44 38° ENE 04:02:44 38° ENE visible
05 Oct 8.7 05:39:03 10° N 05:43:16 25° WNW 05:43:28 25° WNW visible
06 Oct 9.8 03:30:14 10° NE 03:32:55 22° ENE 03:32:55 22° ENE visible
06 Oct 8.1 05:09:14 10° N 05:13:39 42° NW 05:13:39 42° NW visible
07 Oct 10.5 03:02:17 10° ENE 03:03:07 12° ENE 03:03:07 12° ENE visible
07 Oct 8.0 04:39:42 10° NNE 04:43:51 56° N 04:43:51 56° N visible
07 Oct 9.5 06:21:37 10° NW 06:23:33 12° NW 06:24:34 11° WNW visible
08 Oct 8.8 04:10:25 10° NNE 04:14:02 41° NE 04:14:02 41° NE visible
08 Oct 9.0 05:50:50 10° NNW 05:54:39 21° WNW 05:54:46 21° WNW visible
09 Oct 9.7 03:41:27 10° NNE 03:44:13 25° ENE 03:44:13 25° ENE visible
09 Oct 8.4 05:20:52 10° N 05:24:57 34° NW 05:24:57 34° NW visible
10 Oct 10.4 03:13:04 10° NE 03:14:24 14° ENE 03:14:24 14° ENE visible
10 Oct 8.2 04:51:14 10° N 04:55:08 47° NNW 04:55:08 47° NNW visible
